When you browse on this site, cookies collect data to enhance your experience and personalize the content and advertising you see.
Visit our Privacy Policy to learn more. By continuing to use the site, you agree to this use of cookies and data.
  • In United Kingdom
  • List of Countries
  • For 7 days
  • Water Temperature
  • Weather Map
  • Weather Widgets
  • user-avatar
    Login

    Hourly Weather Sharyn

    Today, 22 September, Sunday

    Time Temperature Precipitation Wind Pressure Humidity
    00:00 +9°C° 0 mm 5 mps 747 mmHg 73%
    01:00 +10°C° 0 mm 5 mps 746 mmHg 74%
    02:00 +10°C° 0 mm 6 mps 746 mmHg 75%
    03:00 +10°C° 0 mm 6 mps 746 mmHg 73%
    04:00 +10°C° 0 mm 6 mps 746 mmHg 71%
    05:00 +11°C° 0 mm 6 mps 746 mmHg 69%
    06:00 +11°C° 0 mm 6 mps 746 mmHg 65%
    07:00 +12°C° 0 mm 7 mps 746 mmHg 62%
    08:00 +12°C° 0 mm 7 mps 746 mmHg 58%
    09:00 +15°C° 0 mm 7 mps 746 mmHg 54%
    10:00 +16°C° 0 mm 7 mps 746 mmHg 50%
    11:00 +18°C° 0 mm 7 mps 746 mmHg 47%
    12:00 +20°C° 0 mm 7 mps 745 mmHg 45%
    13:00 +20°C° 0 mm 6 mps 745 mmHg 43%
    14:00 +21°C° 0 mm 6 mps 745 mmHg 42%
    15:00 +21°C° 0 mm 6 mps 744 mmHg 43%
    16:00 +21°C° 0 mm 5 mps 744 mmHg 45%
    17:00 +20°C° 0 mm 5 mps 744 mmHg 47%
    18:00 +18°C° 0 mm 4 mps 744 mmHg 53%
    19:00 +17°C° 0 mm 3 mps 744 mmHg 59%
    20:00 +14°C° 0 mm 3 mps 744 mmHg 66%
    21:00 +13°C° 0 mm 3 mps 744 mmHg 69%
    22:00 +13°C° 0 mm 3 mps 744 mmHg 72%
    23:00 +13°C° 0 mm 2 mps 744 mmHg 75%

    Tomorrow, 23 September, Monday

    Time Temperature Precipitation Wind Pressure Humidity
    00:00 +13°C° 0 mm 2 mps 744 mmHg 78%
    01:00 +12°C° 0 mm 2 mps 744 mmHg 81%
    02:00 +12°C° 0 mm 2 mps 744 mmHg 84%
    03:00 +12°C° 0 mm 2 mps 744 mmHg 86%
    04:00 +10°C° 0 mm 2 mps 744 mmHg 89%
    05:00 +10°C° 0 mm 2 mps 744 mmHg 92%
    06:00 +12°C° 0 mm 2 mps 745 mmHg 88%
    07:00 +13°C° 0 mm 2 mps 745 mmHg 84%
    08:00 +13°C° 0 mm 3 mps 745 mmHg 80%
    09:00 +14°C° 0 mm 3 mps 745 mmHg 73%
    10:00 +16°C° 0 mm 3 mps 746 mmHg 66%
    11:00 +18°C° 0 mm 3 mps 746 mmHg 59%
    12:00 +18°C° 0 mm 3 mps 746 mmHg 58%
    13:00 +18°C° 0 mm 4 mps 745 mmHg 57%
    14:00 +18°C° 0 mm 4 mps 745 mmHg 56%
    15:00 +18°C° 0 mm 4 mps 745 mmHg 56%
    16:00 +17°C° 0 mm 4 mps 745 mmHg 55%
    17:00 +16°C° 0 mm 5 mps 744 mmHg 55%
    18:00 +14°C° 0 mm 5 mps 745 mmHg 56%
    19:00 +13°C° 0 mm 4 mps 745 mmHg 58%
    20:00 +11°C° 0 mm 4 mps 745 mmHg 59%
    21:00 +11°C° 0 mm 4 mps 745 mmHg 57%
    22:00 +11°C° 0 mm 4 mps 745 mmHg 55%
    23:00 +11°C° 0 mm 4 mps 745 mmHg 52%

    Day after tomorrow, 24 September, Tuesday

    Time Temperature Precipitation Wind Pressure Humidity
    00:00 +11°C° 0 mm 4 mps 745 mmHg 51%
    01:00 +11°C° 0 mm 3 mps 745 mmHg 50%
    02:00 +11°C° 0 mm 3 mps 745 mmHg 49%
    03:00 +10°C° 0 mm 3 mps 745 mmHg 51%
    04:00 +10°C° 0 mm 3 mps 745 mmHg 53%
    05:00 +9°C° 0 mm 3 mps 744 mmHg 56%
    06:00 +10°C° 0 mm 3 mps 744 mmHg 54%
    07:00 +11°C° 0 mm 4 mps 744 mmHg 53%
    08:00 +12°C° 0 mm 4 mps 744 mmHg 51%
    09:00 +14°C° 0 mm 4 mps 744 mmHg 49%
    10:00 +17°C° 0 mm 4 mps 744 mmHg 47%
    11:00 +19°C° 0 mm 3 mps 744 mmHg 45%
    12:00 +20°C° 0 mm 3 mps 744 mmHg 42%
    13:00 +22°C° 0 mm 3 mps 743 mmHg 39%
    14:00 +24°C° 0 mm 2 mps 743 mmHg 35%
    15:00 +23°C° 0 mm 2 mps 743 mmHg 37%
    16:00 +23°C° 0 mm 2 mps 742 mmHg 38%
    17:00 +23°C° 0 mm 1 mps 742 mmHg 39%
    18:00 +20°C° 0 mm 2 mps 742 mmHg 43%
    19:00 +19°C° 0 mm 2 mps 742 mmHg 46%
    20:00 +18°C° 0 mm 3 mps 742 mmHg 50%
    21:00 +18°C° 0 mm 2 mps 742 mmHg 54%
    22:00 +17°C° 0 mm 2 mps 742 mmHg 58%
    23:00 +16°C° 0 mm 2 mps 742 mmHg 62%

    25 September, Wednesday

    Time Temperature Precipitation Wind Pressure Humidity
    00:00 +15°C° 0 mm 2 mps 742 mmHg 65%
    01:00 +15°C° 0 mm 2 mps 742 mmHg 68%
    02:00 +14°C° 0 mm 2 mps 742 mmHg 71%
    03:00 +13°C° 0 mm 2 mps 742 mmHg 74%
    04:00 +13°C° 0 mm 1 mps 742 mmHg 76%
    05:00 +12°C° 0 mm 1 mps 742 mmHg 78%
    06:00 +14°C° 0 mm 1 mps 742 mmHg 72%
    07:00 +15°C° 0 mm 1 mps 742 mmHg 67%
    08:00 +16°C° 0 mm 1 mps 742 mmHg 61%
    09:00 +19°C° 0 mm 1 mps 742 mmHg 55%
    10:00 +20°C° 0 mm 2 mps 742 mmHg 48%
    11:00 +23°C° 0 mm 2 mps 742 mmHg 42%
    12:00 +22°C° 0 mm 3 mps 742 mmHg 40%
    13:00 +24°C° 0 mm 3 mps 742 mmHg 37%
    14:00 +23°C° 0 mm 4 mps 741 mmHg 35%
    15:00 +22°C° 0 mm 3 mps 741 mmHg 38%
    16:00 +21°C° 0 mm 2 mps 741 mmHg 40%
    17:00 +21°C° 0 mm 1 mps 740 mmHg 43%
    18:00 +21°C° 0 mm 1 mps 741 mmHg 46%
    19:00 +20°C° 0 mm 1 mps 741 mmHg 48%
    20:00 +19°C° 0 mm 1 mps 741 mmHg 50%
    21:00 +18°C° 0 mm 2 mps 741 mmHg 51%
    22:00 +18°C° 0 mm 2 mps 741 mmHg 52%
    23:00 +17°C° 0 mm 2 mps 741 mmHg 53%

    26 September, Thursday

    Time Temperature Precipitation Wind Pressure Humidity
    00:00 +17°C° 0 mm 3 mps 741 mmHg 55%
    01:00 +17°C° 0 mm 3 mps 740 mmHg 57%
    02:00 +17°C° 0 mm 3 mps 740 mmHg 59%
    03:00 +16°C° 0.1 mm 3 mps 740 mmHg 61%
    04:00 +16°C° 0.1 mm 3 mps 740 mmHg 63%
    05:00 +16°C° 0.1 mm 3 mps 740 mmHg 64%
    06:00 +16°C° 0.2 mm 3 mps 740 mmHg 67%
    07:00 +14°C° 0.2 mm 4 mps 740 mmHg 69%
    08:00 +14°C° 0.2 mm 4 mps 740 mmHg 72%
    09:00 +14°C° 1.4 mm 4 mps 740 mmHg 78%
    10:00 +14°C° 1.4 mm 4 mps 740 mmHg 83%
    11:00 +13°C° 1.4 mm 3 mps 741 mmHg 89%
    12:00 +13°C° 0.9 mm 3 mps 740 mmHg 90%
    13:00 +14°C° 0.9 mm 3 mps 740 mmHg 90%
    14:00 +14°C° 0.9 mm 3 mps 740 mmHg 91%
    15:00 +15°C° 0.7 mm 2 mps 740 mmHg 92%
    16:00 +15°C° 0.7 mm 2 mps 740 mmHg 93%
    17:00 +15°C° 0.7 mm 2 mps 740 mmHg 94%
    18:00 +14°C° 0.5 mm 3 mps 740 mmHg 93%
    19:00 +14°C° 0.5 mm 3 mps 740 mmHg 93%
    20:00 +13°C° 0.5 mm 3 mps 740 mmHg 93%
    21:00 +13°C° 0.1 mm 3 mps 740 mmHg 92%
    22:00 +12°C° 0.1 mm 3 mps 740 mmHg 92%
    23:00 +12°C° 0.1 mm 3 mps 740 mmHg 92%

    27 September, Friday

    Time Temperature Precipitation Wind Pressure Humidity
    00:00 +12°C° 0 mm 4 mps 741 mmHg 91%
    01:00 +11°C° 0 mm 4 mps 741 mmHg 90%
    02:00 +11°C° 0 mm 4 mps 741 mmHg 90%
    03:00 +11°C° 0 mm 4 mps 741 mmHg 89%
    04:00 +10°C° 0 mm 4 mps 741 mmHg 89%
    05:00 +10°C° 0 mm 4 mps 741 mmHg 89%
    06:00 +11°C° 0 mm 4 mps 741 mmHg 85%
    07:00 +12°C° 0 mm 5 mps 742 mmHg 82%
    08:00 +13°C° 0 mm 5 mps 742 mmHg 78%
    09:00 +14°C° 0 mm 6 mps 742 mmHg 71%
    10:00 +16°C° 0 mm 6 mps 742 mmHg 65%
    11:00 +19°C° 0 mm 6 mps 743 mmHg 59%
    12:00 +19°C° 0.1 mm 6 mps 742 mmHg 56%
    13:00 +20°C° 0.1 mm 6 mps 742 mmHg 54%
    14:00 +20°C° 0.1 mm 7 mps 742 mmHg 52%
    15:00 +20°C° 0 mm 6 mps 742 mmHg 55%
    16:00 +19°C° 0 mm 5 mps 742 mmHg 57%
    17:00 +17°C° 0 mm 5 mps 742 mmHg 60%
    18:00 +18°C° 0 mm 4 mps 743 mmHg 63%
    19:00 +17°C° 0 mm 4 mps 743 mmHg 67%
    20:00 +16°C° 0 mm 3 mps 743 mmHg 71%
    21:00 +16°C° 0.1 mm 3 mps 743 mmHg 75%
    22:00 +14°C° 0.1 mm 3 mps 744 mmHg 78%
    23:00 +14°C° 0.1 mm 3 mps 744 mmHg 82%
    Show more